{"data":{"norad_id":47269,"epoch":"2026-05-25T02:34:01.407936Z","epoch_age_seconds":69004,"freshness":"FRESH","line1":"1 47269U 20100M   26145.10696074  .00000469  00000+0  12686-2 0  9995","line2":"2 47269  87.8950 355.2603 0001834  88.6093 271.5246 13.12442374261660","mean_motion":13.12442374,"eccentricity":0.0001834,"inclination_deg":87.895,"raan_deg":355.2603,"arg_perigee_deg":88.6093,"mean_anomaly_deg":271.5246,"bstar":0.0012686,"rev_number":26166,"period_min":109.71910298897,"perigee_km":1212.333357504,"apogee_km":1215.1180527442,"semimajor_km":7591.8627051241,"source":"CELESTRAK","updated_at":"2026-05-25T13:38:22.381347Z"}}